Theta_e
320 320 320 322 323 324 324 324 324 325 325 326 326 327 328 327 328 331 331 328 331 336 340 343 346 344 338 337 337 337 338 338 340 343 342 339 338 338 336 337 337 336 335 335
322 321 321 322 323 323 324 323 324 324 324 325 326 327 328 328 330 334 333 332 333 336 341 346 347 344 339 337 337 337 338 337 336 340 342 341 341 339 338 337 337 336 334 334
323 323 322 322 323 323 324 324 324 323 324 325 327 327 327 328 335 337 336 333 336 337 341 345 347 347 345 339 338 338 338 336 334 339 340 340 339 339 338 336 335 334 335 335
323 323 322 323 322 323 323 323 323 324 325 325 327 327 329 329 330 336 337 336 335 337 339 343 345 346 343 345 340 338 336 334 335 338 340 339 340 338 337 335 335 336 336 333
322 323 323 322 323 323 323 323 323 325 326 327 327 328 327 329 329 329 337 340 339 339 340 343 344 345 344 339 341 337 336 336 337 338 338 338 340 340 337 337 337 333 330 327
322 322 323 324 324 323 323 324 325 326 326 328 326 328 328 328 329 330 337 340 341 341 342 343 344 342 340 343 344 338 338 337 337 337 338 340 339 339 338 332 328 325 321 317
323 322 322 323 325 324 324 325 326 327 326 326 328 327 328 328 328 329 330 333 338 342 342 343 341 339 342 343 343 343 339 338 339 339 339 339 341 338 329 328 324 318 317 315
323 322 322 322 323 325 325 325 326 327 326 326 328 326 328 328 328 331 333 336 337 341 342 343 341 341 342 343 343 341 339 340 340 340 341 340 333 328 327 322 319 318 315 314
323 322 321 321 322 322 323 325 325 328 328 328 327 327 328 328 328 329 332 336 339 341 342 343 342 341 342 342 340 339 338 338 339 339 336 329 328 326 322 321 319 317 314 312
324 324 322 322 323 323 322 326 326 326 328 329 328 327 328 328 328 329 329 332 338 342 342 343 342 340 341 340 338 337 335 335 335 331 328 327 325 322 322 321 318 313 310 309
323 324 324 322 323 324 324 324 325 327 329 330 330 329 329 328 329 329 329 329 335 343 343 343 342 339 341 338 336 335 332 330 329 326 326 324 322 321 321 319 315 313 310 312
323 326 327 326 325 324 324 325 326 327 327 329 328 328 328 328 328 328 328 329 337 342 342 342 341 339 339 336 334 332 329 327 325 324 324 322 321 321 319 316 313 311 312 312
325 326 329 328 327 326 325 326 326 327 329 329 328 328 327 328 328 327 327 328 336 342 342 340 339 340 338 336 332 330 327 325 323 324 323 322 320 319 317 315 312 312 310 312
321 326 328 328 328 326 328 326 326 328 330 327 327 327 327 327 328 327 327 329 335 341 343 341 340 338 336 335 331 328 327 325 324 324 323 322 320 319 317 313 310 310 311 312
322 325 325 325 323 323 323 324 325 327 328 330 329 329 329 330 330 329 328 330 335 339 341 343 341 339 338 334 330 328 326 325 325 324 322 321 320 319 315 312 310 310 312 311
320 322 322 324 322 323 323 323 324 324 324 326 327 329 329 328 329 330 329 328 332 338 340 342 341 339 335 332 329 327 326 325 324 323 322 320 319 317 313 310 312 313 312 311
318 319 322 322 321 322 323 323 324 324 325 325 326 327 327 328 329 330 331 329 329 334 338 341 342 339 335 332 328 326 325 324 323 322 321 320 319 315 314 314 313 312 312 310
317 319 320 321 321 323 322 322 323 324 324 324 325 327 328 327 329 330 330 330 330 333 336 340 341 339 336 332 328 326 325 323 323 321 321 320 317 315 314 313 312 312 311 310
315 317 317 319 320 320 320 321 321 322 323 325 327 326 325 327 327 331 335 335 332 334 337 339 340 339 336 331 328 326 324 323 322 322 321 317 315 314 313 311 312 312 311 310
316 316 317 317 318 319 322 322 321 321 322 327 326 327 328 328 331 330 332 334 335 336 337 338 339 339 335 330 328 326 324 323 323 323 319 316 314 312 311 312 312 311 310 309
321 320 318 315 317 319 320 320 322 324 330 325 324 325 327 330 328 328 329 333 335 336 337 337 338 337 332 330 329 326 324 324 324 321 315 312 311 312 312 311 310 309 309 309
319 319 320 318 318 318 318 322 324 326 322 321 324 325 326 326 327 328 329 331 334 335 335 336 336 332 331 329 327 325 325 324 323 316 312 310 312 311 310 309 308 308 309 310
317 318 321 320 319 323 324 323 320 319 317 319 320 319 319 322 325 327 329 331 333 333 332 332 332 330 328 327 326 325 326 324 317 311 311 312 310 310 308 308 308 308 308 308
316 315 321 320 319 318 316 316 315 314 318 318 317 316 317 319 323 326 328 330 332 332 331 331 329 327 325 325 324 325 324 316 311 310 310 311 311 308 309 309 308 308 308 307
312 313 315 316 315 314 313 312 312 314 316 315 314 314 316 318 321 327 329 330 331 331 329 327 327 324 323 321 322 323 314 310 311 307 311 311 310 310 309 309 308 308 307 306
308 310 311 312 311 311 312 311 311 312 314 314 315 317 317 318 320 327 329 330 330 328 327 326 325 321 320 322 320 312 308 310 311 311 311 310 309 308 308 308 308 307 306 305
Wind_Speed
11 9 12 13 12 8 5 6 8 7 4 10 14 16 16 21 11 19 19 20 21 18 16 18 19 21 24 23 24 24 22 22 24 23 20 17 15 13 14 15 19 16 16 16
8 12 10 4 6 8 8 9 11 9 7 6 14 15 16 14 13 13 13 14 17 17 16 16 16 19 22 23 25 25 23 24 24 21 16 14 13 11 11 14 15 15 14 15
12 5 4 10 10 11 12 11 9 11 9 14 13 17 17 9 9 10 10 11 12 15 18 15 15 16 19 22 23 22 21 21 19 18 20 20 19 17 16 13 13 13 15 18
11 11 8 9 14 12 13 5 9 8 7 9 6 12 9 9 9 6 5 8 11 12 14 15 15 15 17 14 18 18 18 16 15 15 16 16 12 10 9 10 11 15 14 13
7 9 13 15 12 10 10 3 8 8 10 10 14 9 14 6 11 7 2 4 5 7 10 13 13 14 14 17 14 15 15 13 13 15 14 12 10 12 12 12 12 10 11 13
15 5 6 7 5 11 3 8 11 10 11 12 15 11 13 10 4 7 4 1 2 5 8 11 12 14 14 13 14 15 15 15 15 15 14 12 14 10 9 7 5 6 8 12
13 14 13 11 10 9 9 8 8 9 10 12 5 7 14 11 7 7 9 7 5 7 10 13 14 14 15 16 15 15 16 15 14 13 13 13 12 11 8 5 4 5 6 8
7 8 16 12 19 13 13 13 10 7 10 10 9 7 6 6 6 9 10 10 10 10 12 15 15 16 17 17 16 14 15 15 14 14 13 12 10 9 7 6 6 6 5 7
4 5 2 4 9 15 17 11 13 14 13 10 12 9 7 16 11 11 9 9 9 9 13 15 16 18 18 17 16 15 15 15 14 13 13 12 10 7 6 7 7 8 9 7
4 8 8 2 5 7 13 1 7 9 13 16 10 11 8 5 8 7 7 7 9 10 12 16 18 19 19 17 15 15 14 13 14 14 13 11 8 6 6 7 6 8 8 7
8 7 4 6 11 10 8 12 9 7 8 10 12 8 0 7 8 10 15 11 9 11 14 17 18 20 19 17 16 15 15 14 15 14 12 9 7 6 6 6 6 6 7 6
2 5 10 17 10 6 12 15 12 10 12 10 11 13 11 10 14 13 18 16 9 8 13 18 20 21 21 19 17 16 16 15 14 13 10 9 7 5 4 4 6 6 6 8
6 5 8 10 10 10 11 12 14 10 10 16 14 12 3 7 14 19 19 16 9 10 15 18 18 22 21 19 18 17 16 15 15 13 10 8 5 3 3 5 6 7 10 10
4 6 9 11 10 8 4 8 9 10 10 14 15 17 15 16 16 21 22 16 11 13 18 19 21 22 22 21 20 19 19 18 15 13 11 7 5 4 5 7 8 10 11 11
4 7 11 12 14 15 14 14 15 16 15 17 15 17 15 15 17 22 21 16 11 16 19 20 22 23 24 23 22 21 21 19 17 13 9 6 5 7 7 9 10 11 10 11
1 8 9 16 16 17 21 20 20 20 21 22 21 21 18 24 24 21 24 21 15 17 19 23 23 24 26 26 25 25 22 21 16 12 9 6 6 7 9 10 9 9 9 11
6 7 9 19 17 19 21 20 24 25 24 20 22 20 17 13 19 19 20 20 21 16 20 26 30 31 30 29 28 27 24 19 14 10 7 5 6 8 7 7 8 8 10 12
8 9 9 11 10 19 13 16 12 13 14 15 16 13 14 16 20 20 20 20 21 12 15 22 26 28 28 24 22 20 19 16 13 10 6 6 8 5 5 7 8 9 10 12
18 12 8 11 13 20 25 18 16 15 16 8 15 14 20 19 23 16 24 20 17 14 12 20 24 25 25 24 23 21 20 16 12 8 6 5 4 4 6 7 9 10 11 12
13 14 11 8 14 12 4 8 5 11 15 12 12 13 16 19 11 6 33 26 19 10 7 16 22 26 27 26 25 22 20 15 11 8 7 5 4 5 6 8 9 10 11 12
7 8 16 14 13 9 8 13 11 8 5 13 14 14 16 12 15 26 27 24 16 7 6 12 20 27 27 28 26 22 18 14 11 8 5 4 4 4 6 8 10 9 10 12
11 7 7 11 15 18 7 7 9 11 16 19 18 18 20 21 23 24 25 21 13 5 6 14 19 22 25 26 24 22 17 13 9 7 5 3 3 4 6 8 9 10 10 12
10 13 7 10 5 4 3 3 9 14 22 21 26 27 26 27 26 28 27 20 12 6 8 14 19 21 21 23 22 21 16 11 9 6 4 3 2 4 5 7 7 8 11 14
12 17 9 14 14 19 21 18 23 24 16 21 22 28 29 29 29 29 26 18 9 7 11 17 21 20 21 20 19 17 14 12 9 6 3 2 2 4 4 6 9 11 13 15
13 11 11 20 24 30 30 26 17 21 22 25 30 32 32 29 30 27 23 14 9 11 14 19 22 22 24 19 19 15 13 11 9 6 3 1 2 3 6 9 10 11 13 15
23 20 15 17 21 22 22 23 25 27 29 30 29 31 34 31 30 25 19 12 12 16 19 21 23 26 25 23 18 16 14 10 8 6 3 1 2 6 8 10 13 15 17 21
Wind_Direction
200 219 217 218 227 310 285 272 269 276 264 270 260 264 272 267 264 263 268 250 237 221 216 213 209 216 221 228 235 240 242 243 241 237 229 222 221 220 227 236 250 255 258 268
192 228 241 267 225 236 244 259 260 277 289 250 265 272 269 255 268 280 279 238 223 214 204 199 211 217 224 233 239 243 246 246 244 234 217 212 210 214 219 240 246 252 264 276
247 75 235 212 206 231 239 261 278 286 296 270 264 262 248 221 255 262 257 237 222 217 209 214 210 212 224 234 240 240 239 242 236 215 221 229 235 237 237 239 246 260 276 282
244 226 206 221 240 235 262 260 261 271 263 258 206 273 184 212 253 208 233 217 221 221 220 216 215 213 221 221 225 225 228 228 224 215 218 229 221 200 204 214 250 273 272 282
218 212 219 232 234 223 263 289 256 275 262 275 248 246 271 202 258 265 170 189 196 215 216 212 212 212 204 217 206 207 203 199 200 201 206 206 185 204 231 248 264 254 279 283
271 186 235 240 240 235 253 217 236 252 251 240 242 245 254 246 357 320 156 284 230 220 211 201 198 211 195 180 182 190 184 190 197 201 205 190 210 225 230 226 228 260 279 295
223 237 223 237 226 187 221 230 245 220 219 246 191 232 250 305 280 287 295 269 271 235 213 199 199 195 182 178 174 173 183 192 195 199 205 208 220 224 219 225 224 275 282 297
231 224 219 221 231 238 209 238 260 269 258 252 149 239 227 238 281 281 284 277 278 229 216 208 205 189 183 180 173 173 181 193 199 207 208 210 202 198 216 233 272 276 283 289
212 233 148 252 239 231 231 237 256 271 265 275 277 249 219 246 258 262 259 273 263 231 214 206 198 188 185 182 180 176 183 192 200 201 192 192 197 202 225 267 281 293 302 295
251 260 224 198 199 214 253 187 213 222 263 254 253 246 267 252 285 328 303 285 267 236 210 199 195 187 186 186 177 176 176 185 188 184 185 191 200 224 252 278 297 302 298 307
252 242 193 187 211 242 183 227 232 295 293 276 269 265 191 279 309 309 311 326 302 222 208 195 194 185 188 185 182 177 172 177 182 180 185 194 212 237 267 300 313 309 299 295
63 256 248 247 266 253 270 279 236 240 237 239 275 275 301 280 291 311 305 318 310 225 203 195 192 184 189 187 184 180 176 176 179 183 191 206 224 250 293 308 301 293 291 294
357 223 247 220 220 215 235 222 236 249 280 264 272 267 208 252 272 291 295 303 289 226 199 197 193 188 190 187 183 178 177 173 178 187 201 214 232 260 275 294 292 290 301 302
302 267 264 282 347 351 228 220 223 225 250 261 255 270 270 287 273 279 282 300 265 224 206 198 193 189 186 185 182 179 179 183 185 192 205 216 237 255 275 288 293 296 304 305
306 257 264 273 281 286 272 270 267 253 254 265 279 284 293 296 286 284 286 289 262 223 210 204 195 192 187 183 180 182 183 186 191 197 200 214 243 271 284 288 288 299 303 303
251 263 265 266 264 267 269 260 255 256 257 261 264 267 277 280 285 283 271 270 264 243 221 205 201 195 191 187 184 185 189 195 191 188 195 214 252 280 281 284 294 295 300 305
279 276 249 263 265 269 266 251 250 254 254 256 260 268 279 295 304 294 282 272 277 255 227 211 200 198 195 191 189 187 188 182 183 181 182 225 269 273 277 287 291 296 302 309
248 246 257 263 279 251 266 265 265 279 276 269 266 276 273 287 311 306 280 274 279 276 235 215 206 202 196 188 178 180 181 179 177 176 194 249 261 262 270 289 292 298 308 310
221 241 256 241 233 259 282 275 260 254 263 354 341 302 280 295 300 318 22 346 295 280 232 208 202 198 189 180 176 174 175 177 171 181 223 237 237 253 281 290 297 302 308 305
208 221 239 244 239 254 41 17 276 232 250 39 5 2 353 333 282 285 348 346 339 313 233 194 189 184 181 173 171 174 175 170 172 210 220 208 227 269 284 291 301 305 301 306
169 207 222 232 249 265 279 291 310 241 56 345 335 343 348 338 326 314 323 330 329 308 208 188 182 180 174 168 172 167 165 169 194 211 204 230 250 271 285 297 309 302 302 305
215 215 205 234 241 249 234 265 286 9 330 331 336 333 333 327 325 321 326 325 321 297 188 177 180 177 169 164 167 163 160 184 204 193 211 220 252 281 287 304 303 296 303 317
248 237 274 222 218 90 287 304 328 321 316 320 326 325 326 323 319 321 321 319 309 256 196 175 172 168 164 161 161 161 178 188 186 187 182 205 260 292 303 306 303 317 312 317
249 258 257 269 250 269 281 297 302 306 315 309 311 311 313 312 312 314 312 309 283 227 184 168 165 161 150 150 156 171 176 176 166 158 184 219 273 303 312 307 310 311 314 314
267 301 271 268 266 274 274 278 303 304 301 301 303 304 301 302 303 304 302 290 247 193 175 165 158 156 156 149 160 169 169 155 154 148 161 226 324 322 305 313 311 309 309 308
253 251 247 258 276 278 278 288 295 292 289 292 295 298 294 294 293 297 288 265 212 182 170 161 153 162 155 159 163 157 153 151 144 134 132 227 338 306 312 318 321 321 322 322